[[{"header":{"parameterUnit":"m.s-1","parameterCategory":2,"la1":30.2991,"la2":30.254,"lo1":-89.0895,"lo2":-89.0444,"dy":0.0017,"dx":0.0017,"nx":28,"ny":28,"refTime":"2023-08-18T03:00:00:Z","depth":"0","parameterNumber":2,"parameterNumberName":"U-component_of_CURRENTS"},"data":[0,0,0,0,0,0,0,0,0,0,0,0,0,0,0,0,0,0,0,0,0,0,0,0,0,0,0,0,0,0,0,0,0,0,0,0,0,0,0,0,0,0,0,0,0,0,0,0,0,0,0,0,0,0,0,0,0,0,0.2724,0.2725,0,0.2791,0.2792,0.2793,0.2807,0.2806,0.2805,0.2805,0.2929,0.2933,0.2937,0,0,0,0,0,0,0,0,0,0,0,0,0,0.2671,0.2671,0.2724,0.2725,0.2725,0.2791,0.2792,0.2793,0.2807,0.2806,0.2805,0.2805,0.2928,0.2932,0.2937,0,0,0,0,0,0,0,0,0,0,0,0,0,0.2713,0.2671,0.2724,0.2739,0.2741,0.279,0.2792,0.2793,0.2807,0.2806,0.2805,0.2804,0.2926,0.2932,0.2938,0.2994,0,0,0.2956,0.2958,0,0,0,0,0,0,0,0,0.271,0.2715,0.2736,0.2738,0.274,0.2788,0.2818,0.2862,0.2807,0.2784,0.2805,0.2804,0.2887,0.2896,0.2912,0.3,0.3005,0.2956,0.296,0.2962,0.2964,0,0,0,0,0,0,0,0.2707,0.2713,0.2752,0.2737,0.2739,0.2763,0.2768,0.2827,0.2843,0.2786,0.2787,0.2791,0.2888,0.2906,0.2915,0.3007,0.2956,0.2961,0.2965,0.2967,0.3154,0.3155,0,0,0,0,0,0,0.2693,0.271,0.275,0.2754,0.272,0.2764,0.277,0.2775,0.2841,0.2849,0.2792,0.2792,0.2897,0.2908,0.292,0.298,0.2962,0.2968,0.2971,0.3152,0.3154,0.3156,0,0,0,0,0,0,0.2692,0.2696,0.2748,0.2732,0.274,0.2766,0.2772,0.2777,0.2793,0.2844,0.2854,0.2802,0.2897,0.2912,0.2957,0.2985,0.297,0.2976,0.3151,0.3153,0.3155,0.3107,0,0,0,0,0,0,0.269,0.2696,0.2709,0.2731,0.274,0.2781,0.2773,0.2779,0.2796,0.2797,0.2857,0.2867,0.2897,0.2947,0.2962,0.2993,0.298,0.3149,0.3152,0.3154,0.3107,0.3107,0.3108,0,0,0,0,0,0.2688,0.2714,0.2709,0.2715,0.2753,0.2782,0.279,0.2806,0.2798,0.2815,0.2837,0.2865,0.2976,0.2953,0.297,0.3003,0.3147,0.3151,0.3154,0.3107,0.3107,0.3108,0,0,0,0,0,0,0.2713,0.2719,0.2713,0.2743,0.2758,0.2783,0.2806,0.2808,0.284,0.2836,0.2875,0.2888,0.2952,0.2982,0.2955,0.3068,0.3072,0.3079,0.303,0.3031,0.3032,0.3023,0.2985,0,0,0,0,0,0.2719,0.2733,0.2741,0.2768,0.277,0.2785,0.2802,0.2805,0.2829,0.2841,0.2873,0.2919,0.2983,0.3004,0.3067,0.3115,0.3148,0.3153,0.3153,0.3153,0.3159,0.3229,0.3236,0.3166,0.3166,0.3166,0,0,0.275,0.2744,0.2763,0.2773,0.2784,0.2795,0.2793,0.2814,0.282,0.2854,0.2877,0.2932,0.3,0.3057,0.3089,0.3079,0.3187,0.3157,0.3156,0.3163,0.3233,0.324,0.3245,0.3168,0.3168,0.3167,0,0,0.2799,0.2794,0.2817,0.2816,0.2818,0.2816,0.2817,0.283,0.2832,0.2858,0.2895,0.2948,0.3024,0.3074,0.3112,0.3155,0.32,0.3189,0.3168,0.3235,0.324,0.3246,0.3273,0.3281,0.3172,0.3172,0.3172,0,0.2843,0.2844,0.2834,0.2837,0.2834,0.2819,0.2831,0.2835,0.2859,0.2866,0.286,0.2984,0.3034,0.3116,0.3127,0.3156,0.319,0.3152,0.3233,0.3239,0.3246,0.3272,0.3282,0.317,0.317,0.3171,0.3171,0,0.2896,0.2888,0.2897,0.2882,0.2882,0.289,0.2871,0.2869,0.2857,0.2867,0.2931,0.299,0.3059,0.3093,0.312,0.3204,0.3211,0.3233,0.3221,0.3249,0.3276,0.3287,0.3167,0.3168,0.3169,0.3169,0,0,0.3007,0.2951,0.2952,0.2923,0.2895,0.2897,0.2887,0.2885,0.2883,0.2907,0.2929,0.3026,0.3051,0.3097,0.3148,0.3198,0.326,0.3227,0.3231,0.3235,0.3386,0.3145,0.3134,0.3298,0.33,0.3302,0.3376,0,0.305,0.3045,0.3007,0.2991,0.2973,0.2931,0.2925,0.2917,0.2908,0.2922,0.2972,0.3027,0.3053,0.309,0.3145,0.3245,0.3292,0.3236,0.3375,0.3379,0.3146,0.314,0.2932,0.2958,0.3387,0.3388,0.339,0,0.3107,0.3073,0.3071,0.2996,0.2991,0.2983,0.2945,0.294,0.2946,0.2945,0.2986,0.3021,0.3099,0.3117,0.3267,0.3231,0.3308,0.3371,0.3376,0.3177,0.3158,0.3009,0.2963,0.2887,0.3407,0.3406,0.3405,0,0.3156,0.3113,0.3099,0.308,0.3015,0.2999,0.2972,0.2957,0.2942,0.2963,0.2955,0.305,0.3076,0.3203,0.3279,0.3298,0.3425,0.3469,0.3326,0.331,0.3171,0.3135,0.305,0.3588,0.3588,0.3588,0.3588,0,0.3196,0.3175,0.3115,0.3098,0.3061,0.3023,0.3,0.2977,0.2969,0.295,0.2974,0.297,0.3101,0.3158,0.3278,0.3284,0.342,0.3311,0.3309,0.3141,0.3104,0.3061,0.3033,0.3591,0.359,0.359,0.3589,0,0.3236,0.3211,0.3164,0.3098,0.3074,0.3047,0.2982,0.2966,0.2954,0.2926,0.2927,0.2925,0.2968,0.3065,0.3236,0.322,0.3178,0.3291,0.304,0.3003,0.2731,0.2707,0.2536,0.2491,0.3137,0.3131,0.3126,0,0.3234,0.3227,0.3161,0.3123,0.3083,0.3035,0.2997,0.2963,0.2932,0.2885,0.2866,0.2864,0.2815,0.2887,0.2895,0.2974,0.2998,0.28,0.2781,0.2648,0.2629,0.2577,0.2554,0.2605,0.2596,0.2589,0.2583,0,0.32,0.3205,0.3173,0.3101,0.3047,0.2977,0.2916,0.289,0.2843,0.2792,0.27,0.2653,0.2615,0.2501,0.2508,0.2565,0.2574,0.2648,0.2621,0.2257,0.2095,0.2072,0.2615,0.252,0.2527,0.2531,0.2535,0.2537,0.3154,0.3142,0.3107,0.3021,0.2974,0.2873,0.2766,0.2715,0.2616,0.2447,0.2525,0.2331,0.2214,0.2145,0.2167,0.199,0.2126,0.1948,0.1953,0.1935,0.1782,0.2116,0.1932,0.1935,0.1937,0.1939,0.1941,0,0.3009,0.303,0.2999,0.2874,0.2775,0.2775,0.2655,0.2511,0.2327,0.2227,0.2103,0.1857,0.1688,0.1635,0.1453,0.1338,0.1373,0.1314,0.1276,0.1318,0.1717,0.1581,0.1174,0.1174,0.1174,0.1175,0.1175,0.1175,0.2937,0.2885,0.2877,0.2662,0.2588,0.2367,0.2263,0.2092,0.196,0.1644,0.1424,0.1371,0.1279,0.1064,0.0901,0.0892,0.0903,0.0733,0.0883,0.1222,0.1286,0.1347,0.1215,0.0738,0.0738,0.0439,0.0436,0.0434]},{"header":{"parameterUnit":"m.s-1","parameterCategory":2,"la1":30.2991,"la2":30.254,"lo1":-89.0895,"lo2":-89.0444,"dy":0.0017,"dx":0.0017,"nx":28,"ny":28,"refTime":"2023-08-18T03:00:00:Z","depth":"0","parameterNumber":3,"parameterNumberName":"V-component_of_CURRENTS"},"data":[0,0,0,0,0,0,0,0,0,0,0,0,0,0,0,0,0,0,0,0,0,0,0,0,0,0,0,0,0,0,0,0,0,0,0,0,0,0,0,0,0,0,0,0,0,0,0,0,0,0,0,0,0,0,0,0,0,0,0.0966,0.0967,0,0.1064,0.1065,0.1067,0.1116,0.1115,0.1115,0.1115,0.1229,0.1232,0.1235,0,0,0,0,0,0,0,0,0,0,0,0,0,0.0792,0.0796,0.0966,0.0967,0.0968,0.1064,0.1066,0.1067,0.1116,0.1115,0.1115,0.1114,0.1228,0.1232,0.1236,0,0,0,0,0,0,0,0,0,0,0,0,0,0.0881,0.0797,0.0966,0.1,0.1004,0.1063,0.1066,0.1068,0.1116,0.1115,0.1115,0.1114,0.1226,0.1231,0.1236,0.128,0,0,0.1252,0.1254,0,0,0,0,0,0,0,0,0.0876,0.0888,0.0994,0.0998,0.1002,0.1073,0.1046,0.1138,0.1116,0.1078,0.1115,0.1114,0.1176,0.1185,0.1211,0.1286,0.1291,0.1252,0.1256,0.1258,0.1259,0,0,0,0,0,0,0,0.087,0.0884,0.101,0.0995,0.1,0.1,0.1013,0.1064,0.1133,0.1082,0.1084,0.1088,0.1178,0.1206,0.1214,0.1292,0.1252,0.1257,0.126,0.1262,0.1352,0.1352,0,0,0,0,0,0,0.0852,0.0879,0.1007,0.1012,0.0931,0.1003,0.1018,0.1055,0.1132,0.1142,0.1088,0.109,0.1197,0.1208,0.1218,0.1288,0.1258,0.1263,0.1265,0.1353,0.1352,0.1351,0,0,0,0,0,0,0.0848,0.0864,0.1003,0.0941,0.0958,0.1007,0.1048,0.1057,0.108,0.1136,0.1147,0.1101,0.1197,0.1211,0.1261,0.1292,0.1265,0.127,0.1354,0.1353,0.1352,0.142,0,0,0,0,0,0,0.0844,0.0863,0.0887,0.0942,0.0961,0.1028,0.1048,0.1059,0.1081,0.1084,0.1151,0.1161,0.1198,0.1253,0.1266,0.1299,0.1274,0.1355,0.1353,0.1352,0.1419,0.1422,0.1424,0,0,0,0,0,0.0838,0.0886,0.0889,0.0903,0.0994,0.1027,0.1038,0.1072,0.1082,0.1092,0.1139,0.1159,0.1253,0.1258,0.1273,0.1308,0.1355,0.1354,0.1352,0.1418,0.1421,0.1424,0,0,0,0,0,0,0.084,0.0896,0.0901,0.0968,0.0982,0.1033,0.1052,0.1069,0.1116,0.112,0.1173,0.1187,0.1245,0.1248,0.1252,0.1319,0.1299,0.13,0.1343,0.1346,0.1349,0.1356,0.1278,0,0,0,0,0,0.0845,0.0892,0.0921,0.0973,0.0974,0.1007,0.1027,0.1043,0.1087,0.1107,0.1156,0.1196,0.1252,0.1274,0.1318,0.1363,0.1344,0.1381,0.1383,0.1386,0.1395,0.1368,0.1371,0.1346,0.1346,0.1346,0,0,0.0867,0.0897,0.0928,0.0973,0.099,0.1018,0.1019,0.1044,0.1086,0.1113,0.1188,0.122,0.1265,0.1325,0.1347,0.1332,0.1382,0.1384,0.1387,0.1395,0.1367,0.137,0.1372,0.1345,0.1345,0.1346,0,0,0.0909,0.0944,0.0978,0.0987,0.0998,0.1024,0.1024,0.1063,0.1092,0.115,0.1189,0.1229,0.1304,0.1349,0.1381,0.1413,0.1404,0.1414,0.144,0.1414,0.1417,0.1419,0.1404,0.1404,0.1407,0.1407,0.1407,0,0.0926,0.0975,0.0989,0.1006,0.1024,0.1025,0.1052,0.1091,0.1148,0.1185,0.1171,0.1287,0.132,0.1411,0.1424,0.1428,0.1405,0.1438,0.1421,0.1422,0.1423,0.1408,0.1407,0.141,0.141,0.1409,0.1409,0,0.0974,0.1007,0.1022,0.1055,0.1078,0.1095,0.113,0.1164,0.1191,0.1235,0.1309,0.1344,0.1406,0.142,0.1446,0.1482,0.1463,0.1439,0.1423,0.1431,0.1413,0.1411,0.1414,0.1413,0.1412,0.1412,0,0,0.1025,0.1052,0.1054,0.1065,0.1098,0.1123,0.1189,0.1252,0.1305,0.1339,0.1403,0.1484,0.1483,0.1513,0.1532,0.1514,0.1511,0.1481,0.1478,0.1486,0.1459,0.1463,0.1461,0.148,0.148,0.148,0.1447,0,0.1047,0.1077,0.1104,0.1153,0.1164,0.1196,0.1263,0.1324,0.1373,0.1434,0.1462,0.1524,0.1525,0.1542,0.1534,0.1525,0.1508,0.1523,0.1434,0.1431,0.145,0.146,0.1419,0.1387,0.1445,0.1445,0.1445,0,0.1072,0.1088,0.112,0.1183,0.1195,0.1238,0.1328,0.1389,0.1477,0.1509,0.156,0.1582,0.1613,0.157,0.1555,0.1562,0.1518,0.1488,0.1485,0.1467,0.1433,0.1384,0.1381,0.1389,0.1442,0.1442,0.1442,0,0.1056,0.1108,0.1132,0.1146,0.1214,0.1255,0.131,0.1408,0.146,0.1544,0.1567,0.1618,0.1611,0.1579,0.1545,0.1539,0.1492,0.1468,0.1434,0.1434,0.1371,0.1366,0.1381,0.1429,0.1429,0.1429,0.1429,0,0.1057,0.1076,0.1121,0.1125,0.1178,0.1243,0.1316,0.1384,0.1468,0.1522,0.1588,0.1613,0.1602,0.1587,0.1551,0.1501,0.1493,0.145,0.1428,0.1393,0.139,0.137,0.1378,0.1428,0.1428,0.1428,0.1429,0,0.1019,0.1041,0.1068,0.1135,0.1157,0.1193,0.1288,0.1344,0.1429,0.1487,0.1503,0.1586,0.1577,0.1571,0.1516,0.1496,0.1454,0.1427,0.1403,0.1379,0.1368,0.138,0.1362,0.1411,0.1392,0.1392,0.1392,0,0.0986,0.0994,0.105,0.1064,0.1087,0.1146,0.1188,0.1296,0.135,0.1466,0.1481,0.1518,0.1546,0.1513,0.1481,0.1436,0.1434,0.1366,0.1354,0.1377,0.1372,0.1379,0.1424,0.1292,0.1291,0.1291,0.129,0,0.0934,0.0958,0.0989,0.1012,0.1045,0.1092,0.116,0.1188,0.1309,0.1362,0.1429,0.1466,0.1478,0.1443,0.1417,0.1386,0.1389,0.1351,0.1365,0.13,0.1315,0.1348,0.1319,0.1284,0.1284,0.1285,0.1285,0.1285,0.0887,0.0909,0.095,0.0975,0.1011,0.1043,0.1066,0.114,0.1204,0.1293,0.1345,0.1395,0.1399,0.1378,0.1352,0.1308,0.135,0.1272,0.1285,0.1292,0.1345,0.1325,0.1275,0.1275,0.1276,0.1276,0.1276,0,0.0827,0.0876,0.0908,0.0942,0.0963,0.1,0.1054,0.108,0.1126,0.1218,0.1274,0.1302,0.128,0.1276,0.1229,0.1227,0.1256,0.1234,0.1223,0.1277,0.123,0.1232,0.1183,0.1183,0.1183,0.1183,0.1183,0.1183,0.0799,0.083,0.0866,0.0882,0.0909,0.0923,0.0942,0.0988,0.1054,0.1118,0.1164,0.1246,0.1309,0.1176,0.1161,0.1171,0.1246,0.1204,0.13,0.1237,0.1241,0.1245,0.125,0.1206,0.1206,0.1335,0.1336,0.1337]}],[{"header":{"parameterUnit":"m.s-1","parameterCategory":2,"la1":30.2991,"la2":30.254,"lo1":-89.0895,"lo2":-89.0444,"dy":0.0017,"dx":0.0017,"nx":28,"ny":28,"refTime":"2023-08-18T03:00:00:Z","depth":"2","parameterNumber":2,"parameterNumberName":"U-component_of_CURRENTS"},"data":[0,0,0,0,0,0,0,0,0,0,0,0,0,0,0,0,0,0,0,0,0,0,0,0,0,0,0,0,0,0,0,0,0,0,0,0,0,0,0,0,0,0,0,0,0,0,0,0,0,0,0,0,0,0,0,0,0,0,0.2404,0.2404,0,0.2385,0.2385,0.2384,0.2378,0.2379,0.2379,0.2379,0.2558,0.2563,0.2567,0,0,0,0,0,0,0,0,0,0,0,0,0,0.2309,0.2312,0.2404,0.2404,0.2404,0.2385,0.2385,0.2384,0.2378,0.2379,0.2379,0.2379,0.2557,0.2562,0.2567,0,0,0,0,0,0,0,0,0,0,0,0,0,0.2325,0.2313,0.2404,0.2401,0.24,0.2385,0.2385,0.2384,0.2378,0.2379,0.2379,0.238,0.2555,0.2562,0.2568,0.26,0,0,0.2589,0.2592,0,0,0,0,0,0,0,0,0.2324,0.2328,0.2401,0.2401,0.2401,0.2387,0.2417,0.2467,0.2378,0.2384,0.2379,0.238,0.2521,0.253,0.2519,0.2609,0.2616,0.2589,0.2593,0.2596,0.2598,0,0,0,0,0,0,0,0.2323,0.2328,0.2394,0.2401,0.2401,0.2357,0.236,0.2424,0.2452,0.2384,0.2384,0.2385,0.2521,0.2512,0.2524,0.2619,0.2589,0.2595,0.2599,0.2602,0.2774,0.2775,0,0,0,0,0,0,0.2337,0.2328,0.2395,0.2394,0.2365,0.2359,0.2363,0.2389,0.2447,0.2455,0.2385,0.2385,0.2501,0.2516,0.2531,0.2627,0.2596,0.2603,0.2606,0.2774,0.2774,0.2775,0,0,0,0,0,0,0.2335,0.2344,0.2396,0.236,0.2364,0.2361,0.239,0.2388,0.2423,0.2446,0.2458,0.2427,0.2502,0.2521,0.2582,0.2633,0.2606,0.2612,0.2773,0.2774,0.2775,0.2787,0,0,0,0,0,0,0.2333,0.2344,0.238,0.2363,0.2367,0.2412,0.2389,0.2388,0.2422,0.2423,0.2486,0.2499,0.2504,0.2572,0.2589,0.2642,0.2617,0.2772,0.2773,0.2774,0.2786,0.2788,0.279,0,0,0,0,0,0.233,0.2372,0.2383,0.2391,0.2414,0.2413,0.2412,0.2407,0.2424,0.2442,0.246,0.25,0.2591,0.2577,0.2597,0.2653,0.2772,0.2773,0.2774,0.2785,0.2788,0.279,0,0,0,0,0,0,0.2334,0.2375,0.2386,0.2436,0.2439,0.2414,0.2429,0.244,0.2466,0.2464,0.2507,0.252,0.259,0.2618,0.2602,0.2701,0.2691,0.2696,0.2692,0.2695,0.2697,0.2654,0.2622,0,0,0,0,0,0.2358,0.24,0.2419,0.2448,0.2464,0.2461,0.2469,0.2455,0.2466,0.2479,0.2515,0.2554,0.2604,0.2646,0.2675,0.2746,0.2724,0.2793,0.2795,0.2797,0.2773,0.2781,0.2781,0.2779,0.2779,0.2779,0,0,0.2388,0.2386,0.243,0.2452,0.2453,0.2437,0.2467,0.2469,0.2458,0.2499,0.2516,0.2567,0.262,0.2667,0.2706,0.2707,0.2781,0.2798,0.28,0.2774,0.2782,0.2782,0.2782,0.278,0.278,0.278,0,0,0.2368,0.245,0.2454,0.2457,0.2446,0.2441,0.2462,0.246,0.2481,0.2508,0.2525,0.2586,0.2675,0.269,0.2725,0.2765,0.2785,0.2814,0.2808,0.2817,0.2817,0.2816,0.2765,0.276,0.2825,0.2825,0.2825,0,0.2381,0.2384,0.2451,0.2411,0.2418,0.2452,0.2433,0.2448,0.2456,0.2486,0.2515,0.2619,0.2671,0.2733,0.2737,0.2772,0.2763,0.2799,0.2819,0.2818,0.2817,0.2765,0.2759,0.2825,0.2825,0.2825,0.2825,0,0.2315,0.2342,0.2341,0.2316,0.2341,0.2329,0.2363,0.2394,0.2447,0.2455,0.2547,0.2603,0.2666,0.2717,0.2748,0.2791,0.2779,0.2813,0.2809,0.2818,0.2762,0.2756,0.2827,0.2826,0.2826,0.2826,0,0,0.2267,0.2298,0.2297,0.2301,0.2295,0.231,0.2326,0.2364,0.2389,0.2446,0.2496,0.2593,0.2642,0.2679,0.2744,0.277,0.2761,0.28,0.28,0.274,0.2744,0.2445,0.241,0.2819,0.2819,0.2818,0.2698,0,0.2182,0.2138,0.2173,0.2159,0.2161,0.2232,0.2256,0.2297,0.2355,0.2403,0.2507,0.2569,0.2626,0.2686,0.2714,0.2776,0.275,0.2787,0.275,0.2747,0.2475,0.2394,0.2335,0.2198,0.2692,0.2691,0.269,0,0.2048,0.2067,0.2066,0.2128,0.2144,0.2155,0.2242,0.2262,0.2338,0.2391,0.2463,0.2522,0.2597,0.2638,0.2688,0.2723,0.2705,0.2728,0.2725,0.243,0.2434,0.2275,0.2168,0.2679,0.268,0.2681,0.2681,0,0.1934,0.1967,0.1995,0.2009,0.2092,0.215,0.2201,0.2273,0.2307,0.2388,0.2419,0.2495,0.2557,0.2587,0.2617,0.2672,0.2626,0.2706,0.2389,0.2369,0.2291,0.226,0.2653,0.2653,0.2653,0.2654,0.2654,0,0.1776,0.1788,0.1978,0.1985,0.2085,0.2137,0.2199,0.227,0.2314,0.2347,0.2421,0.2452,0.2554,0.2547,0.2573,0.2422,0.2576,0.2324,0.23,0.2286,0.2257,0.2671,0.2675,0.2649,0.265,0.2651,0.2652,0,0.1609,0.1696,0.1783,0.1964,0.2029,0.2124,0.2222,0.2219,0.2297,0.2342,0.2371,0.2417,0.2386,0.2386,0.24,0.2314,0.2244,0.2133,0.2054,0.2015,0.1993,0.2,0.1776,0.1764,0.1754,0.1745,0.1738,0,0.1567,0.1583,0.1817,0.191,0.2009,0.2133,0.2166,0.2234,0.2233,0.2324,0.2333,0.2291,0.2211,0.2037,0.1925,0.1768,0.1927,0.1552,0.1598,0.1894,0.1896,0.1919,0.1938,0.1534,0.1526,0.1519,0.1514,0,0.1511,0.1583,0.1619,0.1844,0.1952,0.2063,0.2139,0.2121,0.219,0.2191,0.2199,0.2133,0.1936,0.1705,0.1402,0.1337,0.1575,0.1391,0.1771,0.1707,0.164,0.165,0.1684,0.1454,0.146,0.1464,0.1467,0.147,0.146,0.1517,0.158,0.1779,0.1899,0.2002,0.1994,0.2003,0.1981,0.1951,0.2008,0.1818,0.1614,0.1075,0.0997,0.0946,0.1026,0.1009,0.1045,0.1084,0.1018,0.093,0.0599,0.06,0.06,0.0601,0.0602,0,0.1447,0.1446,0.1547,0.1713,0.1782,0.194,0.1963,0.1877,0.1803,0.1721,0.1668,0.1243,0.0971,0.084,0.0686,0.0552,0.0722,0.0518,0.0822,0.0874,0.0923,0.0867,0.0399,0.0398,0.0398,0.0398,0,0,0.1378,0.1398,0.1456,0.1585,0.1722,0.1763,0.1775,0.1646,0.1533,0.1283,0.1107,0.096,0.0795,0.0577,0.0503,0.0494,0.0715,0.0459,0.0617,0.1033,0.1084,0.1172,0.1133,0,0,0,0,0]},{"header":{"parameterUnit":"m.s-1","parameterCategory":2,"la1":30.2991,"la2":30.254,"lo1":-89.0895,"lo2":-89.0444,"dy":0.0017,"dx":0.0017,"nx":28,"ny":28,"refTime":"2023-08-18T03:00:00:Z","depth":"2","parameterNumber":3,"parameterNumberName":"V-component_of_CURRENTS"},"data":[0,0,0,0,0,0,0,0,0,0,0,0,0,0,0,0,0,0,0,0,0,0,0,0,0,0,0,0,0,0,0,0,0,0,0,0,0,0,0,0,0,0,0,0,0,0,0,0,0,0,0,0,0,0,0,0,0,0,0.0509,0.0508,0,0.053,0.0532,0.0533,0.0622,0.0623,0.0624,0.0624,0.079,0.0793,0.0797,0,0,0,0,0,0,0,0,0,0,0,0,0,0.0404,0.0407,0.0509,0.0508,0.0507,0.053,0.0532,0.0533,0.0621,0.0623,0.0624,0.0625,0.0789,0.0793,0.0797,0,0,0,0,0,0,0,0,0,0,0,0,0,0.0451,0.0408,0.0509,0.0545,0.0548,0.053,0.0532,0.0533,0.0621,0.0623,0.0624,0.0625,0.0787,0.0792,0.0798,0.08,0,0,0.0813,0.0816,0,0,0,0,0,0,0,0,0.0449,0.0457,0.0541,0.0543,0.0546,0.0565,0.0554,0.0626,0.0621,0.0606,0.0624,0.0626,0.0719,0.073,0.0745,0.0808,0.0815,0.0814,0.0817,0.0819,0.0821,0,0,0,0,0,0,0,0.0445,0.0455,0.0529,0.054,0.0542,0.0512,0.0523,0.0568,0.0666,0.0607,0.0611,0.0594,0.0723,0.074,0.075,0.0817,0.0814,0.0818,0.0822,0.0824,0.0882,0.0881,0,0,0,0,0,0,0.0426,0.0453,0.0528,0.0529,0.0487,0.0512,0.0525,0.0567,0.0662,0.0673,0.0593,0.0598,0.073,0.0744,0.0756,0.0834,0.0819,0.0824,0.0827,0.0884,0.0882,0.088,0,0,0,0,0,0,0.0425,0.0435,0.0527,0.0478,0.0486,0.0512,0.0558,0.0566,0.0625,0.0647,0.0665,0.0647,0.0732,0.0749,0.0804,0.0839,0.0827,0.0831,0.0886,0.0883,0.0881,0.0946,0,0,0,0,0,0,0.0423,0.0436,0.0469,0.0479,0.0488,0.0537,0.0555,0.0565,0.0603,0.0613,0.0698,0.0712,0.0735,0.0795,0.0809,0.0846,0.0835,0.0888,0.0885,0.0882,0.0946,0.0946,0.0946,0,0,0,0,0,0.042,0.0454,0.0472,0.048,0.0533,0.0536,0.0541,0.0568,0.0605,0.0631,0.0673,0.0712,0.0785,0.0799,0.0815,0.0855,0.0889,0.0886,0.0882,0.0945,0.0946,0.0946,0,0,0,0,0,0,0.0411,0.0465,0.0486,0.0534,0.054,0.0547,0.0561,0.059,0.0646,0.0653,0.0713,0.0729,0.0769,0.0791,0.0805,0.0848,0.0836,0.0835,0.0878,0.0879,0.0879,0.0881,0.084,0,0,0,0,0,0.0424,0.0465,0.0498,0.0518,0.0541,0.0564,0.0574,0.0582,0.0614,0.0643,0.0701,0.0736,0.0757,0.0807,0.0808,0.0871,0.0831,0.0891,0.0891,0.0892,0.0895,0.0781,0.0772,0.0869,0.0869,0.0869,0,0,0.0428,0.0442,0.0475,0.0517,0.0534,0.0536,0.0581,0.0585,0.061,0.0649,0.0724,0.0734,0.0759,0.0796,0.0821,0.0841,0.0855,0.0888,0.089,0.0892,0.0776,0.0767,0.0759,0.0866,0.0867,0.0867,0,0,0.0382,0.0473,0.048,0.0489,0.0489,0.0517,0.0532,0.0567,0.0634,0.0684,0.0691,0.0719,0.0802,0.0805,0.0825,0.0829,0.0831,0.0841,0.0899,0.0788,0.078,0.0772,0.0772,0.0763,0.0879,0.0879,0.0879,0,0.0368,0.0395,0.0471,0.0445,0.0465,0.0518,0.0522,0.0576,0.0618,0.069,0.071,0.0775,0.0797,0.0837,0.0837,0.0836,0.0804,0.0914,0.0791,0.0782,0.0772,0.0773,0.0763,0.0881,0.0881,0.0881,0.0881,0,0.0296,0.0334,0.0334,0.0353,0.0392,0.0392,0.0475,0.0544,0.064,0.0693,0.0778,0.0789,0.0838,0.0845,0.0866,0.083,0.0842,0.0778,0.0801,0.0767,0.077,0.0759,0.0885,0.0884,0.0884,0.0883,0,0,0.0224,0.0287,0.0275,0.0323,0.0357,0.0393,0.0468,0.0584,0.0672,0.0731,0.0839,0.0864,0.0891,0.0905,0.0912,0.0854,0.0785,0.0817,0.081,0.084,0.0619,0.0628,0.0616,0.0695,0.0692,0.0689,0.0673,0,0.0146,0.0125,0.0178,0.0212,0.0263,0.0369,0.0457,0.056,0.0682,0.0791,0.0851,0.0918,0.0913,0.0946,0.088,0.081,0.0745,0.0801,0.0627,0.0625,0.0651,0.0597,0.0566,0.0544,0.0661,0.0658,0.0657,0,0.0043,0.0075,0.0099,0.0256,0.0294,0.0326,0.0534,0.0607,0.0764,0.0861,0.0928,0.097,0.0981,0.092,0.0803,0.0845,0.0727,0.0653,0.0648,0.0619,0.0606,0.0579,0.0518,0.0636,0.0638,0.064,0.0641,0,-0.0026,0.0035,0.0087,0.0112,0.0268,0.0361,0.0468,0.0638,0.0743,0.0892,0.0966,0.0986,0.1006,0.0863,0.0765,0.0774,0.0586,0.0567,0.0464,0.0469,0.0389,0.039,0.0376,0.0376,0.0376,0.0376,0.0376,0,-0.0115,-0.0058,0.0079,0.0099,0.0257,0.0364,0.0514,0.0651,0.0774,0.0894,0.0989,0.1055,0.0968,0.0893,0.0766,0.0614,0.0576,0.0469,0.0435,0.0419,0.0423,0.0441,0.0449,0.0376,0.0376,0.0376,0.0376,0,-0.0183,-0.0126,-0.0026,0.0143,0.0225,0.0347,0.0541,0.0628,0.0773,0.0912,0.096,0.1073,0.1026,0.0914,0.0705,0.0628,0.0461,0.0372,0.043,0.0402,0.0443,0.0455,0.033,0.033,0.0329,0.0329,0.0329,0,-0.0206,-0.0184,-0.0013,0.0086,0.0182,0.0356,0.0469,0.0626,0.0715,0.0936,0.0998,0.1022,0.1049,0.0835,0.0674,0.0476,0.0396,0.0311,0.0289,0.0444,0.0424,0.0436,0.0447,0.0246,0.0245,0.0244,0.0244,0,-0.0225,-0.019,-0.012,0.0063,0.0208,0.0366,0.0543,0.0591,0.0783,0.0892,0.1046,0.1078,0.0982,0.0807,0.0559,0.0428,0.037,0.0293,0.0357,0.0266,0.0362,0.0344,0.0358,0.0237,0.0238,0.0238,0.0238,0.0239,-0.0241,-0.0185,-0.0114,0.0083,0.0243,0.0413,0.0509,0.0634,0.0763,0.0954,0.1005,0.1036,0.087,0.0554,0.0427,0.0333,0.0328,0.0232,0.0235,0.0238,0.0234,0.0322,0.0197,0.0198,0.0198,0.0198,0.0199,0,-0.0206,-0.0169,-0.0059,0.0157,0.0308,0.0425,0.0594,0.0656,0.0791,0.0891,0.0994,0.0783,0.062,0.0466,0.0333,0.025,0.0265,0.0203,0.0204,0.0209,0.0213,0.021,0.0166,0.0167,0.0167,0.0168,0,0,-0.0194,-0.0132,-0.0071,0.019,0.0356,0.0542,0.0638,0.0709,0.0769,0.0812,0.0801,0.0772,0.0565,0.042,0.0297,0.025,0.0273,0.0251,0.0271,0.0289,0.0297,0.0204,0.0199,0,0,0,0,0]}],[{"header":{"parameterUnit":"m.s-1","parameterCategory":2,"la1":30.2991,"la2":30.254,"lo1":-89.0895,"lo2":-89.0444,"dy":0.0017,"dx":0.0017,"nx":28,"ny":28,"refTime":"2023-08-18T03:00:00:Z","depth":"4","parameterNumber":2,"parameterNumberName":"U-component_of_CURRENTS"},"data":[0,0,0,0,0,0,0,0,0,0,0,0,0,0,0,0,0,0,0,0,0,0,0,0,0,0,0,0,0,0,0,0,0,0,0,0,0,0,0,0,0,0,0,0,0,0,0,0,0,0,0,0,0,0,0,0,0,0,-0.0199,-0.02,0,-0.0359,-0.0362,-0.0366,-0.0462,-0.0461,-0.046,-0.0459,-0.0543,-0.0547,-0.055,0,0,0,0,0,0,0,0,0,0,0,0,0,-0.0089,-0.0091,-0.0199,-0.02,-0.02,-0.0359,-0.0363,-0.0366,-0.0462,-0.0461,-0.046,-0.0458,-0.0542,-0.0546,-0.055,0,0,0,0,0,0,0,0,0,0,0,0,0,-0.0198,-0.0092,-0.0199,-0.0254,-0.0259,-0.0358,-0.0363,-0.0368,-0.0463,-0.0461,-0.0459,-0.0458,-0.0541,-0.0546,-0.0551,-0.0616,0,0,-0.0566,-0.0568,0,0,0,0,0,0,0,0,-0.0192,-0.0204,-0.0246,-0.025,-0.0256,-0.0373,-0.0354,-0.0441,-0.0463,-0.0404,-0.0459,-0.0457,-0.0469,-0.048,-0.054,-0.062,-0.0624,-0.0566,-0.057,-0.0572,-0.0573,0,0,0,0,0,0,0,-0.0184,-0.0198,-0.0281,-0.0246,-0.0252,-0.0307,-0.0322,-0.0373,-0.0457,-0.0409,-0.0412,-0.0402,-0.0474,-0.0536,-0.0542,-0.0625,-0.0566,-0.0571,-0.0574,-0.0576,-0.0744,-0.0746,0,0,0,0,0,0,-0.0125,-0.0191,-0.0275,-0.0284,-0.0199,-0.0309,-0.0326,-0.0352,-0.0458,-0.0468,-0.0404,-0.0406,-0.0528,-0.0537,-0.0545,-0.0582,-0.0572,-0.0576,-0.0579,-0.0743,-0.0745,-0.0746,0,0,0,0,0,0,-0.0123,-0.0133,-0.0268,-0.0224,-0.0243,-0.031,-0.034,-0.0356,-0.0375,-0.0451,-0.0463,-0.0398,-0.0527,-0.0538,-0.0589,-0.0586,-0.0579,-0.0583,-0.0741,-0.0744,-0.0746,-0.0683,0,0,0,0,0,0,-0.012,-0.0133,-0.0159,-0.0222,-0.0243,-0.0332,-0.034,-0.0359,-0.0365,-0.0369,-0.0451,-0.0461,-0.0526,-0.0581,-0.0594,-0.0593,-0.0587,-0.0739,-0.0742,-0.0745,-0.0683,-0.0683,-0.0683,0,0,0,0,0,-0.0116,-0.0184,-0.0161,-0.0171,-0.027,-0.0331,-0.0352,-0.0404,-0.0365,-0.0408,-0.0448,-0.0456,-0.0607,-0.0587,-0.0601,-0.0602,-0.0738,-0.0741,-0.0745,-0.0684,-0.0683,-0.0683,0,0,0,0,0,0,-0.0228,-0.0199,-0.0176,-0.0252,-0.027,-0.0341,-0.0397,-0.0372,-0.0442,-0.043,-0.0478,-0.0495,-0.0538,-0.0584,-0.0559,-0.0663,-0.0672,-0.0679,-0.0621,-0.0621,-0.0621,-0.0606,-0.0591,0,0,0,0,0,-0.0234,-0.0237,-0.0236,-0.03,-0.0302,-0.0322,-0.0351,-0.0353,-0.0399,-0.0426,-0.0463,-0.0515,-0.0576,-0.0602,-0.0673,-0.0724,-0.074,-0.0735,-0.0735,-0.0734,-0.0735,-0.0782,-0.0785,-0.0757,-0.0757,-0.0757,0,0,-0.0303,-0.0279,-0.0294,-0.0313,-0.0341,-0.0369,-0.0344,-0.0374,-0.0392,-0.0421,-0.048,-0.0509,-0.0589,-0.0663,-0.0685,-0.069,-0.0745,-0.0738,-0.0736,-0.0738,-0.0786,-0.0788,-0.079,-0.076,-0.0759,-0.0759,0,0,-0.0409,-0.0408,-0.0423,-0.0424,-0.0403,-0.0409,-0.0385,-0.0404,-0.0419,-0.0459,-0.0479,-0.0507,-0.0601,-0.0664,-0.0705,-0.0742,-0.0738,-0.0743,-0.073,-0.0775,-0.0777,-0.0779,-0.0762,-0.0763,-0.0746,-0.0746,-0.0745,0,-0.0473,-0.0488,-0.0454,-0.0463,-0.0456,-0.0404,-0.0419,-0.0453,-0.0479,-0.0474,-0.0474,-0.0568,-0.0619,-0.0689,-0.0706,-0.0739,-0.0734,-0.0716,-0.077,-0.0773,-0.0776,-0.0759,-0.0761,-0.0743,-0.0743,-0.0744,-0.0744,0,-0.0548,-0.0574,-0.0599,-0.0556,-0.0566,-0.0575,-0.0555,-0.0548,-0.051,-0.0518,-0.0544,-0.0618,-0.0659,-0.068,-0.0708,-0.0743,-0.0718,-0.0755,-0.0758,-0.0774,-0.0756,-0.0758,-0.0739,-0.074,-0.0741,-0.0742,0,0,-0.0605,-0.0632,-0.0636,-0.0618,-0.0584,-0.0591,-0.0605,-0.059,-0.0557,-0.0594,-0.0587,-0.0681,-0.0645,-0.069,-0.0704,-0.0746,-0.0746,-0.0741,-0.0744,-0.0699,-0.0782,-0.0709,-0.0705,-0.0774,-0.0776,-0.0777,-0.0744,0,-0.0642,-0.0689,-0.0676,-0.0703,-0.0704,-0.065,-0.0661,-0.0637,-0.0614,-0.0608,-0.0643,-0.066,-0.0674,-0.0654,-0.07,-0.0737,-0.0757,-0.0748,-0.0797,-0.0797,-0.0712,-0.0709,-0.0781,-0.0746,-0.0747,-0.0747,-0.0748,0,-0.0642,-0.0671,-0.073,-0.0705,-0.0697,-0.0703,-0.0626,-0.0628,-0.0611,-0.0591,-0.0594,-0.0601,-0.0641,-0.0658,-0.0727,-0.0706,-0.073,-0.0768,-0.0769,-0.0729,-0.0732,-0.0743,-0.0753,-0.0753,-0.0753,-0.0752,-0.0752,0,-0.0611,-0.0661,-0.0703,-0.0706,-0.0713,-0.0692,-0.0653,-0.0613,-0.0589,-0.056,-0.0531,-0.0575,-0.0579,-0.0644,-0.0698,-0.0696,-0.0778,-0.0799,-0.0756,-0.0749,-0.085,-0.0849,-0.0855,-0.0855,-0.0855,-0.0855,-0.0855,0,-0.0576,-0.0603,-0.0695,-0.0715,-0.0704,-0.0679,-0.0632,-0.059,-0.0546,-0.0526,-0.0507,-0.0522,-0.0574,-0.0621,-0.0683,-0.0712,-0.0764,-0.0741,-0.0746,-0.0819,-0.0816,-0.0848,-0.0848,-0.0854,-0.0854,-0.0854,-0.0855,0,-0.0526,-0.0601,-0.0659,-0.071,-0.0701,-0.0688,-0.0618,-0.0579,-0.0516,-0.0487,-0.0472,-0.0475,-0.0506,-0.0553,-0.0652,-0.0667,-0.0733,-0.0737,-0.0765,-0.0774,-0.0664,-0.0661,-0.0655,-0.0652,-0.065,-0.0648,-0.0646,0,-0.0508,-0.0543,-0.0668,-0.07,-0.0723,-0.0692,-0.0653,-0.0577,-0.0551,-0.0491,-0.0503,-0.0479,-0.0488,-0.0534,-0.0619,-0.0661,-0.0685,-0.0672,-0.07,-0.0642,-0.0648,-0.0649,-0.0649,-0.0643,-0.0642,-0.0642,-0.0641,0,-0.0472,-0.0551,-0.0616,-0.0709,-0.0718,-0.0707,-0.0655,-0.0633,-0.0554,-0.0503,-0.0468,-0.0446,-0.0465,-0.0516,-0.0511,-0.0589,-0.0658,-0.0649,-0.0654,-0.068,-0.0628,-0.0636,-0.0639,-0.0633,-0.0635,-0.0635,-0.0636,0,-0.0459,-0.0505,-0.063,-0.0677,-0.0719,-0.0727,-0.0693,-0.0638,-0.0586,-0.0493,-0.052,-0.0493,-0.0482,-0.0485,-0.0549,-0.053,-0.0532,-0.0527,-0.0538,-0.0548,-0.0534,-0.0453,-0.0399,0,0,0,0,0,-0.0442,-0.0487,-0.0557,-0.065,-0.0701,-0.0723,-0.0701,-0.0671,-0.0611,-0.0552,-0.0501,-0.0505,-0.047,-0.0516,-0.0478,-0.0563,-0.0583,-0.0522,-0.0595,-0.0591,-0.0599,-0.0596,0,0,0,0,0,0,-0.0444,-0.0523,-0.0557,-0.0619,-0.0663,-0.0703,-0.0705,-0.0668,-0.0635,-0.0565,-0.0565,-0.0473,-0.0488,-0.0466,-0.0466,-0.0469,-0.0506,-0.0502,-0.05,-0.0585,-0.0594,-0.0601,-0.0601,0,0,0,0,0]},{"header":{"parameterUnit":"m.s-1","parameterCategory":2,"la1":30.2991,"la2":30.254,"lo1":-89.0895,"lo2":-89.0444,"dy":0.0017,"dx":0.0017,"nx":28,"ny":28,"refTime":"2023-08-18T03:00:00:Z","depth":"4","parameterNumber":3,"parameterNumberName":"V-component_of_CURRENTS"},"data":[0,0,0,0,0,0,0,0,0,0,0,0,0,0,0,0,0,0,0,0,0,0,0,0,0,0,0,0,0,0,0,0,0,0,0,0,0,0,0,0,0,0,0,0,0,0,0,0,0,0,0,0,0,0,0,0,0,0,0.0087,0.0086,0,0.0033,0.0033,0.0032,-0.003,-0.0031,-0.0032,-0.0033,-0.0151,-0.0153,-0.0155,0,0,0,0,0,0,0,0,0,0,0,0,0,0.0036,0.0038,0.0087,0.0086,0.0085,0.0033,0.0033,0.0032,-0.003,-0.0031,-0.0032,-0.0034,-0.015,-0.0153,-0.0155,0,0,0,0,0,0,0,0,0,0,0,0,0,0.0029,0.0039,0.0087,0.0048,0.0044,0.0033,0.0033,0.0032,-0.003,-0.0031,-0.0033,-0.0034,-0.0149,-0.0152,-0.0156,-0.0147,0,0,-0.0166,-0.0167,0,0,0,0,0,0,0,0,0.0029,0.0031,0.0054,0.005,0.0046,0.0006,-0.0029,-0.0031,-0.0029,-0.0001,-0.0033,-0.0035,-0.0103,-0.0111,-0.0116,-0.0152,-0.0157,-0.0166,-0.0168,-0.017,-0.0171,0,0,0,0,0,0,0,0.003,0.0032,0.0066,0.0054,0.0048,-0.0001,-0.0003,-0.003,-0.0044,-0.0004,-0.0009,-0.0015,-0.0106,-0.0112,-0.0119,-0.0159,-0.0166,-0.0169,-0.0171,-0.0172,-0.0139,-0.0136,0,0,0,0,0,0,0.0043,0.0034,0.0068,0.0064,0.0033,0.0001,-0.0001,0.0021,-0.0043,-0.0053,-0.0014,-0.0018,-0.0106,-0.0115,-0.0124,-0.0105,-0.017,-0.0173,-0.0175,-0.0141,-0.0138,-0.0135,0,0,0,0,0,0,0.0043,0.0048,0.007,0.0045,0.0044,0.0005,0.0028,0.0021,-0.0011,-0.0049,-0.0062,-0.004,-0.0107,-0.0119,-0.0131,-0.0111,-0.0174,-0.0177,-0.0145,-0.014,-0.0136,-0.0075,0,0,0,0,0,0,0.0042,0.0049,0.0038,0.0047,0.0046,0.008,0.003,0.0021,-0.0011,-0.0018,-0.0076,-0.0087,-0.011,-0.0125,-0.0134,-0.0116,-0.018,-0.0149,-0.0143,-0.0138,-0.0081,-0.0069,-0.0059,0,0,0,0,0,0.0041,0.0047,0.0039,0.0041,0.0045,0.0082,0.0078,0.0042,-0.0011,0.0001,-0.0036,-0.0086,-0.0096,-0.0126,-0.0137,-0.012,-0.0151,-0.0144,-0.0138,-0.0085,-0.0071,-0.0059,0,0,0,0,0,0,0.004,0.0042,0.0033,0.0044,0.0067,0.0071,0.0057,0.0032,0.0009,-0.0017,-0.0064,-0.0074,-0.0067,-0.0094,-0.0126,-0.0085,-0.0126,-0.0122,-0.0082,-0.0069,-0.0059,-0.0112,-0.0183,0,0,0,0,0,0.0034,0.0032,0.0051,0.0067,0.007,0.0057,0.0048,0.0038,0.0029,0.0014,-0.0024,-0.005,-0.0042,-0.006,-0.0057,-0.0059,-0.0073,-0.0044,-0.0034,-0.0025,-0.0069,-0.0034,-0.0026,-0.0113,-0.0114,-0.0114,0,0,0.0045,0.0041,0.0043,0.0064,0.0065,0.0086,0.0049,0.0054,0.0059,0.0005,-0.0017,-0.0018,-0.0028,-0.0005,-0.0005,-0.0037,0.0005,-0.0017,-0.001,-0.006,-0.0027,-0.0019,-0.0012,-0.0109,-0.011,-0.0111,0,0,0.0075,0.0063,0.0068,0.0079,0.008,0.0089,0.0088,0.0088,0.007,0.0066,0.0049,0.0063,0.0032,0.0057,0.0057,0.0127,0.0071,0.0126,0.0113,0.015,0.0156,0.016,0.0194,0.0201,0.0118,0.0118,0.0118,0,0.0069,0.0093,0.0082,0.009,0.0091,0.0091,0.011,0.0111,0.0106,0.0084,0.0066,0.0059,0.0067,0.0097,0.013,0.0146,0.0139,0.006,0.0159,0.0164,0.0167,0.02,0.0206,0.0122,0.0122,0.0121,0.0121,0,0.0107,0.0114,0.0124,0.0132,0.0142,0.0165,0.0172,0.0164,0.0129,0.0119,0.0118,0.014,0.012,0.0162,0.0152,0.0194,0.0175,0.0179,0.0114,0.0179,0.0211,0.0217,0.0127,0.0126,0.0125,0.0124,0,0,0.0124,0.0139,0.0139,0.014,0.0155,0.0174,0.0181,0.0188,0.0159,0.0158,0.0125,0.0179,0.0149,0.0151,0.0169,0.02,0.0265,0.0178,0.0178,0.0187,0.0324,0.0223,0.022,0.0266,0.0267,0.0267,0.0349,0,0.015,0.0164,0.017,0.0201,0.0213,0.0203,0.0205,0.02,0.0183,0.0157,0.0164,0.0156,0.016,0.0149,0.0182,0.0232,0.0274,0.0241,0.0276,0.0277,0.016,0.0221,0.0269,0.0353,0.0354,0.0355,0.0356,0,0.0182,0.018,0.0201,0.0204,0.0205,0.0216,0.019,0.019,0.0162,0.0134,0.0109,0.0103,0.0133,0.014,0.0219,0.018,0.024,0.0291,0.0296,0.0163,0.0185,0.0268,0.0366,0.0365,0.0364,0.0363,0.0363,0,0.0187,0.0207,0.0215,0.0217,0.0221,0.0203,0.0191,0.0165,0.0153,0.0106,0.0095,0.0092,0.0103,0.0152,0.0221,0.0214,0.031,0.0336,0.0314,0.0309,0.0344,0.0338,0.0409,0.0409,0.0409,0.0409,0.0408,0,0.02,0.021,0.0206,0.0205,0.0192,0.0182,0.0155,0.013,0.0104,0.0099,0.007,0.006,0.0102,0.015,0.021,0.0249,0.0306,0.0294,0.0313,0.0379,0.0375,0.0351,0.0343,0.0412,0.0411,0.0411,0.041,0,0.0198,0.0206,0.0224,0.0212,0.0198,0.0175,0.0141,0.0121,0.0092,0.0089,0.0075,0.0052,0.0059,0.0125,0.0216,0.0242,0.0302,0.0322,0.0375,0.0399,0.0286,0.0281,0.0293,0.0289,0.0287,0.0285,0.0283,0,0.0188,0.0196,0.0215,0.0212,0.02,0.016,0.0132,0.0101,0.0095,0.0082,0.0087,0.0073,0.0062,0.0098,0.0142,0.0224,0.0245,0.0296,0.0285,0.0251,0.027,0.027,0.0268,0.0279,0.0278,0.0277,0.0277,0,0.0162,0.0184,0.0182,0.0186,0.0171,0.0158,0.0122,0.0108,0.0086,0.0115,0.0072,0.0053,0.0049,0.0037,0.0093,0.0162,0.0257,0.0269,0.0276,0.0266,0.0235,0.0256,0.0258,0.0268,0.0269,0.027,0.027,0,0.0131,0.0129,0.0138,0.0142,0.0147,0.013,0.0108,0.008,0.0062,0.0076,0.0053,0.003,0.0032,0.0006,0.0057,0.0087,0.0101,0.0151,0.0164,0.0175,0.0092,0.0033,0.0006,0,0,0,0,0,0.009,0.0082,0.0086,0.0086,0.0107,0.0122,0.01,0.0082,0.0087,0.0065,0.0059,0.0043,0.0019,-0.0021,-0.0012,0.0006,0.0108,0.0018,0.0174,0.0217,0.0228,0.0137,0,0,0,0,0,0,0.005,0.005,0.0067,0.0054,0.0064,0.0064,0.0059,0.0058,0.0029,0.0045,0.0009,0.0068,0.0021,0.003,-0.0002,0.0003,0.0105,0.0029,0.0029,0.0211,0.0221,0.0229,0.014,0,0,0,0,0]}]]